Location: Larrial
(48.2758°N, 4.5331°W)
Time: 00:28:33
(UTC+00:00)

IGS 5A - Pass Details

Date: 09 April 2020
Orbit: 585 x 587 km, 97.6° (Epoch: 01 June)

Event Time Altitude Azimuth Distance (km) Brightness Sun altitude
Exits shadow 21:57:13 46° 258° (WSW) 789 4.2 -25.6°
Maximum altitude 21:57:17 47° 261° (W) 789 4.2 -25.6°
Drops below altitude 10° 22:01:19 10° 336° (NNW) 1,921 7.0 -26.0°
Sets 22:03:33 0° 342° (NNW) 2,826 8.1 -26.3°
